When you browse on this site, cookies collect data to enhance your experience and personalize the content and advertising you see.
Visit our Privacy Policy to learn more. By continuing to use the site, you agree to this use of cookies and data.

Stündliche Wetter Berlin

Heute, 3 Juli, Freitag

Zeit Temperatur Niederschläge Wind Luftdruck Luftfeuchtigkeit
00:00 +17°C° 0.1 mm 2 m/S 754 mmHg 83%
01:00 +17°C° 0 mm 3 m/S 755 mmHg 86%
02:00 +17°C° 0.1 mm 3 m/S 755 mmHg 86%
03:00 +16°C° 0.1 mm 3 m/S 755 mmHg 86%
04:00 +16°C° 0.1 mm 3 m/S 755 mmHg 86%
05:00 +16°C° 0 mm 3 m/S 756 mmHg 83%
06:00 +17°C° 0 mm 4 m/S 756 mmHg 80%
07:00 +18°C° 0 mm 3 m/S 757 mmHg 77%
08:00 +19°C° 0 mm 3 m/S 757 mmHg 70%
09:00 +20°C° 0 mm 4 m/S 757 mmHg 63%
10:00 +21°C° 0 mm 4 m/S 757 mmHg 56%
11:00 +22°C° 0.1 mm 4 m/S 758 mmHg 52%
12:00 +23°C° 0.1 mm 4 m/S 758 mmHg 49%
13:00 +25°C° 0.1 mm 5 m/S 758 mmHg 46%
14:00 +25°C° 0 mm 4 m/S 757 mmHg 47%
15:00 +25°C° 0 mm 4 m/S 757 mmHg 48%
16:00 +25°C° 0 mm 4 m/S 757 mmHg 49%
17:00 +23°C° 0 mm 4 m/S 757 mmHg 53%
18:00 +24°C° 0 mm 3 m/S 757 mmHg 56%
19:00 +22°C° 0 mm 3 m/S 758 mmHg 60%
20:00 +21°C° 0 mm 2 m/S 758 mmHg 64%
21:00 +19°C° 0 mm 2 m/S 758 mmHg 69%
22:00 +18°C° 0 mm 2 m/S 758 mmHg 74%
23:00 +18°C° 0 mm 2 m/S 758 mmHg 74%

Morgen, 4 Juli, Samstag

Zeit Temperatur Niederschläge Wind Luftdruck Luftfeuchtigkeit
00:00 +18°C° 0 mm 3 m/S 758 mmHg 74%
01:00 +18°C° 0 mm 3 m/S 758 mmHg 75%
02:00 +17°C° 0 mm 3 m/S 758 mmHg 77%
03:00 +17°C° 0 mm 3 m/S 758 mmHg 79%
04:00 +17°C° 0 mm 3 m/S 758 mmHg 82%
05:00 +18°C° 0 mm 3 m/S 758 mmHg 77%
06:00 +19°C° 0 mm 4 m/S 758 mmHg 72%
07:00 +20°C° 0 mm 4 m/S 758 mmHg 67%
08:00 +21°C° 0 mm 5 m/S 758 mmHg 60%
09:00 +22°C° 0 mm 5 m/S 758 mmHg 53%
10:00 +23°C° 0 mm 6 m/S 758 mmHg 46%
11:00 +23°C° 0 mm 5 m/S 758 mmHg 47%
12:00 +22°C° 0 mm 5 m/S 758 mmHg 49%
13:00 +22°C° 0 mm 5 m/S 757 mmHg 51%
14:00 +22°C° 0 mm 5 m/S 757 mmHg 50%
15:00 +22°C° 0 mm 5 m/S 757 mmHg 49%
16:00 +23°C° 0 mm 5 m/S 757 mmHg 49%
17:00 +22°C° 0 mm 4 m/S 757 mmHg 53%
18:00 +21°C° 0 mm 4 m/S 757 mmHg 58%
19:00 +20°C° 0 mm 3 m/S 757 mmHg 63%
20:00 +20°C° 0 mm 3 m/S 757 mmHg 65%
21:00 +20°C° 0 mm 3 m/S 757 mmHg 67%
22:00 +19°C° 0 mm 3 m/S 757 mmHg 68%
23:00 +19°C° 0 mm 4 m/S 757 mmHg 70%

übermorgen, 5 Juli, Sonntag

Zeit Temperatur Niederschläge Wind Luftdruck Luftfeuchtigkeit
00:00 +19°C° 0 mm 4 m/S 756 mmHg 71%
01:00 +19°C° 0 mm 4 m/S 756 mmHg 73%
02:00 +19°C° 0 mm 4 m/S 756 mmHg 75%
03:00 +19°C° 0 mm 4 m/S 756 mmHg 77%
04:00 +19°C° 0 mm 4 m/S 755 mmHg 79%
05:00 +19°C° 0.3 mm 4 m/S 755 mmHg 81%
06:00 +19°C° 0.3 mm 5 m/S 755 mmHg 83%
07:00 +19°C° 0.3 mm 5 m/S 755 mmHg 84%
08:00 +20°C° 0 mm 5 m/S 755 mmHg 82%
09:00 +20°C° 0 mm 5 m/S 755 mmHg 80%
10:00 +21°C° 0 mm 5 m/S 755 mmHg 78%
11:00 +22°C° 0.2 mm 5 m/S 755 mmHg 74%
12:00 +23°C° 0.2 mm 5 m/S 755 mmHg 70%
13:00 +26°C° 0.2 mm 5 m/S 754 mmHg 65%
14:00 +26°C° 0.2 mm 5 m/S 754 mmHg 66%
15:00 +26°C° 0.2 mm 5 m/S 754 mmHg 66%
16:00 +26°C° 0.2 mm 5 m/S 754 mmHg 66%
17:00 +25°C° 0.1 mm 5 m/S 753 mmHg 67%
18:00 +25°C° 0.1 mm 4 m/S 753 mmHg 68%
19:00 +23°C° 0.1 mm 4 m/S 753 mmHg 69%
20:00 +22°C° 0.1 mm 4 m/S 753 mmHg 71%
21:00 +22°C° 0.1 mm 4 m/S 753 mmHg 73%
22:00 +21°C° 0.1 mm 4 m/S 753 mmHg 75%
23:00 +20°C° 0 mm 4 m/S 753 mmHg 76%

6 Juli, Montag

Zeit Temperatur Niederschläge Wind Luftdruck Luftfeuchtigkeit
00:00 +20°C° 0 mm 4 m/S 752 mmHg 77%
01:00 +19°C° 0 mm 4 m/S 752 mmHg 78%
02:00 +19°C° 0.1 mm 4 m/S 752 mmHg 78%
03:00 +17°C° 0.1 mm 5 m/S 752 mmHg 78%
04:00 +16°C° 0.1 mm 5 m/S 752 mmHg 78%
05:00 +16°C° 0 mm 6 m/S 752 mmHg 75%
06:00 +16°C° 0 mm 6 m/S 752 mmHg 72%
07:00 +16°C° 0 mm 6 m/S 752 mmHg 70%
08:00 +17°C° 0.1 mm 7 m/S 753 mmHg 62%
09:00 +18°C° 0.1 mm 7 m/S 753 mmHg 55%
10:00 +18°C° 0.1 mm 8 m/S 753 mmHg 48%
11:00 +20°C° 0 mm 8 m/S 753 mmHg 47%
12:00 +20°C° 0 mm 8 m/S 753 mmHg 46%
13:00 +21°C° 0 mm 8 m/S 754 mmHg 44%
14:00 +21°C° 0.1 mm 8 m/S 754 mmHg 46%
15:00 +21°C° 0.1 mm 8 m/S 754 mmHg 48%
16:00 +21°C° 0.1 mm 8 m/S 754 mmHg 49%
17:00 +20°C° 0.1 mm 7 m/S 755 mmHg 53%
18:00 +19°C° 0.1 mm 6 m/S 755 mmHg 56%
19:00 +17°C° 0.1 mm 5 m/S 756 mmHg 60%
20:00 +16°C° 0 mm 5 m/S 756 mmHg 64%
21:00 +15°C° 0 mm 4 m/S 757 mmHg 69%
22:00 +14°C° 0 mm 4 m/S 757 mmHg 74%
23:00 +13°C° 0 mm 4 m/S 758 mmHg 76%

7 Juli, Dienstag

Zeit Temperatur Niederschläge Wind Luftdruck Luftfeuchtigkeit
00:00 +12°C° 0 mm 4 m/S 758 mmHg 78%
01:00 +12°C° 0 mm 4 m/S 758 mmHg 80%
02:00 +11°C° 0 mm 4 m/S 759 mmHg 81%
03:00 +11°C° 0 mm 4 m/S 759 mmHg 81%
04:00 +10°C° 0 mm 3 m/S 759 mmHg 82%
05:00 +11°C° 0 mm 4 m/S 759 mmHg 76%
06:00 +12°C° 0 mm 4 m/S 760 mmHg 71%
07:00 +13°C° 0 mm 4 m/S 760 mmHg 65%
08:00 +14°C° 0 mm 4 m/S 760 mmHg 59%
09:00 +15°C° 0 mm 4 m/S 760 mmHg 54%
10:00 +18°C° 0 mm 4 m/S 760 mmHg 49%
11:00 +18°C° 0 mm 4 m/S 760 mmHg 49%
12:00 +17°C° 0 mm 5 m/S 760 mmHg 49%
13:00 +17°C° 0 mm 5 m/S 760 mmHg 49%
14:00 +19°C° 0 mm 5 m/S 760 mmHg 48%
15:00 +19°C° 0 mm 5 m/S 759 mmHg 48%
16:00 +19°C° 0 mm 5 m/S 759 mmHg 47%
17:00 +17°C° 0.1 mm 5 m/S 759 mmHg 54%
18:00 +18°C° 0.1 mm 4 m/S 759 mmHg 61%
19:00 +17°C° 0.1 mm 4 m/S 759 mmHg 68%
20:00 +15°C° 0 mm 4 m/S 760 mmHg 73%
21:00 +14°C° 0 mm 3 m/S 760 mmHg 77%
22:00 +13°C° 0 mm 3 m/S 761 mmHg 81%
23:00 +12°C° 0 mm 3 m/S 761 mmHg 82%

8 Juli, Mittwoch

Zeit Temperatur Niederschläge Wind Luftdruck Luftfeuchtigkeit
00:00 +11°C° 0 mm 3 m/S 761 mmHg 83%
01:00 +11°C° 0 mm 3 m/S 761 mmHg 83%
02:00 +10°C° 0 mm 3 m/S 762 mmHg 85%
03:00 +10°C° 0 mm 3 m/S 762 mmHg 86%
04:00 +9°C° 0 mm 3 m/S 762 mmHg 88%
05:00 +10°C° 0 mm 3 m/S 762 mmHg 82%
06:00 +12°C° 0 mm 4 m/S 763 mmHg 76%
07:00 +13°C° 0 mm 4 m/S 763 mmHg 71%
08:00 +14°C° 0 mm 4 m/S 763 mmHg 64%
09:00 +17°C° 0 mm 4 m/S 763 mmHg 58%
10:00 +18°C° 0 mm 4 m/S 763 mmHg 52%
11:00 +19°C° 0 mm 4 m/S 763 mmHg 50%
12:00 +19°C° 0 mm 4 m/S 763 mmHg 48%
13:00 +20°C° 0 mm 4 m/S 763 mmHg 46%
14:00 +20°C° 0 mm 4 m/S 762 mmHg 46%
15:00 +21°C° 0 mm 3 m/S 762 mmHg 46%
16:00 +21°C° 0 mm 3 m/S 762 mmHg 45%
17:00 +20°C° 0 mm 3 m/S 762 mmHg 49%
18:00 +20°C° 0 mm 2 m/S 762 mmHg 52%
19:00 +19°C° 0 mm 2 m/S 761 mmHg 55%
20:00 +18°C° 0 mm 2 m/S 761 mmHg 59%
21:00 +16°C° 0 mm 2 m/S 761 mmHg 64%
22:00 +15°C° 0 mm 2 m/S 761 mmHg 68%
23:00 +15°C° 0 mm 2 m/S 761 mmHg 68%
Mehr zeigen